Location: Canazei
(46.4667°N, 11.7667°E)
Time: 03:19:15
(UTC+00:00)

Cosmos 489 Rocket - Pass Details

Date: 21 April 2021
Orbit: 953 x 982 km, 74.0° (Epoch: 10 May)

Event Time Altitude Azimuth Distance (km) Brightness Sun altitude
Rises 02:19:21 0° 335° (NNW) 3,640 7.7 -18.1°
Reaches altitude 10° 02:21:55 10° 331° (NNW) 2,690 7.0 -17.8°
Maximum altitude 02:27:59 58° 254° (WSW) 1,105 4.5 -17.0°
Drops below altitude 10° 02:34:02 10° 177° (S) 2,682 6.5 -16.2°
Sets 02:36:36 0° 174° (S) 3,628 7.2 -15.8°
